H1 CPF 2 NER 2025 7 19 9 200 01 glonass132 H2 1401201 9132 39620 2025 7 19 0 0 0 2025 7 22 23 45 0 900 1 1 0 0 0 1 H9 10 0 60875 0.00000 0 -9135909.701 -14620326.039 -18803870.207 10 0 60875 900.00000 0 -7004263.559 -13449386.986 -20510691.917 10 0 60875 1800.00000 0 -4618745.773 -12371637.987 -21819145.138 10 0 60875 2700.00000 0 -2030743.467 -11433312.411 -22703670.747 10 0 60875 3600.00000 0 699796.563 -10671226.860 -23146930.749 10 0 60875 4500.00000 0 3506611.594 -10111243.533 -23140156.211 10 0 60875 5400.00000 0 6319636.035 -9767210.273 -22683329.361 10 0 60875 6300.00000 0 9067680.360 -9640423.573 -21785195.527 10 0 60875 7200.00000 0 11681165.026 -9719637.824 -20463103.738 10 0 60875 8100.00000 0 14094795.875 -9981621.063 -18742678.216 10 0 60875 9000.00000 0 16250069.443 -10392234.252 -16657326.232 10 0 60875 9900.00000 0 18097503.449 -10907988.863 -14247591.252 10 0 60875 10800.00000 0 19598498.889 -11478016.885 -11560363.540 10 0 60875 11700.00000 0 20726755.536 -12046369.582 -8647963.409 10 0 60875 12600.00000 0 21469181.347 -12554546.964 -5567115.324 10 0 60875 13500.00000 0 21826257.801 -12944149.770 -2377833.439 10 0 60875 14400.00000 0 21811846.377 -13159540.382 857758.737 10 0 60875 15300.00000 0 21452445.297 -13150398.510 4076650.286 10 0 60875 16200.00000 0 20785929.147 -12874062.074 7216181.301 10 0 60875 17100.00000 0 19859826.109 -12297552.955 10215272.348 10 0 60875 18000.00000 0 18729207.148 -11399200.909 13015619.870 10 0 60875 18900.00000 0 17454277.861 -10169796.442 15562833.413 10 0 60875 19800.00000 0 16097775.900 -8613223.627 17807492.162 10 0 60875 20700.00000 0 14722284.698 -6746546.144 19706100.214 10 0 60875 21600.00000 0 13387577.076 -4599543.016 21221922.535 10 0 60875 22500.00000 0 12148100.442 -2213713.637 22325686.237 10 0 60875 23400.00000 0 11050708.610 359206.173 22996134.743 10 0 60875 24300.00000 0 10132734.383 3059155.202 23220425.434 10 0 60875 25200.00000 0 9420482.221 5820005.698 22994364.450 10 0 60875 26100.00000 0 8928202.528 8572076.626 22322475.344 10 0 60875 27000.00000 0 8657588.776 11244797.868 21217901.287 10 0 60875 27900.00000 0 8597816.903 13769415.928 19702143.448 10 0 60875 28800.00000 0 8726124.001 16081630.240 17804640.933 10 0 60875 29700.00000 0 9008900.979 18124052.168 15562200.452 10 0 60875 30600.00000 0 9403252.781 19848386.127 13018286.400 10 0 60875 31500.00000 0 9858960.368 21217243.612 10222184.552 10 0 60875 32400.00000 0 10320762.126 22205515.915 7228054.810 10 0 60875 33300.00000 0 10730859.028 22801249.435 4093890.534 10 0 60875 34200.00000 0 11031538.494 23005987.776 880403.817 10 0 60875 35100.00000 0 11167806.811 22834566.864 -2350142.439 10 0 60875 36000.00000 0 11089919.360 22314371.815 -5535133.671 10 0 60875 36900.00000 0 10755701.982 21484086.635 -8612811.250 10 0 60875 37800.00000 0 10132565.196 20391988.881 -11523465.496 10 0 60875 38700.00000 0 9199125.628 19093860.395 -14210591.235 10 0 60875 39600.00000 0 7946365.138 17650601.273 -16621983.612 10 0 60875 40500.00000 0 6378277.298 16125646.725 -18710752.942 10 0 60875 41400.00000 0 4511972.079 14582294.722 -20436238.894 10 0 60875 42300.00000 0 2377232.188 13081056.275 -21764806.085 10 0 60875 43200.00000 0 15537.306 11677139.284 -22670505.420 10 0 60875 44100.00000 0 -2521405.237 10418171.459 -23135587.956 10 0 60875 45000.00000 0 -5173564.124 9342257.993 -23150860.779 10 0 60875 45900.00000 0 -7874844.444 8476455.745 -22715877.325 10 0 60875 46800.00000 0 -10555612.050 7835728.340 -21838957.639 10 0 60875 47700.00000 0 -13145377.661 7422426.510 -20537037.300 10 0 60875 48600.00000 0 -15575529.354 7226315.883 -18835347.006 10 0 60875 49500.00000 0 -17781999.644 7225151.316 -16766928.226 10 0 60875 50400.00000 0 -19707755.560 7385773.612 -14371993.610 10 0 60875 51300.00000 0 -21305007.181 7665682.136 -11697144.151 10 0 60875 52200.00000 0 -22537041.851 8015016.417 -8794458.267 10 0 60875 53100.00000 0 -23379606.592 8378862.053 -5720470.751 10 0 60875 54000.00000 0 -23821780.472 8699782.077 -2535062.076 10 0 60875 54900.00000 0 -23866300.509 8920465.264 699719.283 10 0 60875 55800.00000 0 -23529327.876 8986377.630 3920877.334 10 0 60875 56700.00000 0 -22839665.223 8848303.269 7065706.757 10 0 60875 57600.00000 0 -21837459.298 8464665.463 10073023.357 10 0 60875 58500.00000 0 -20572445.083 7803528.686 12884361.641 10 0 60875 59400.00000 0 -19101806.969 6844195.964 15445115.365 10 0 60875 60300.00000 0 -17487748.491 5578333.608 17705598.435 10 0 60875 61200.00000 0 -15794874.039 4010575.652 19622005.508 10 0 60875 62100.00000 0 -14087493.329 2158582.547 21157254.114 10 0 60875 63000.00000 0 -12426961.997 52551.718 22281692.815 10 0 60875 63900.00000 0 -10869169.474 -2265799.432 22973662.816 10 0 60875 64800.00000 0 -9462278.470 -4744735.543 23219903.468 10 0 60875 65700.00000 0 -8244809.259 -7324427.940 23015795.188 10 0 60875 66600.00000 0 -7244147.217 -9939222.159 22365436.323 10 0 60875 67500.00000 0 -6475534.092 -12520154.791 21281553.525 10 0 60875 68400.00000 0 -5941583.268 -14997616.051 19785248.058 10 0 60875 69300.00000 0 -5632337.555 -17304048.646 17905583.356 10 0 60875 70200.00000 0 -5525865.577 -19376572.187 15679021.798 10 0 60875 71100.00000 0 -5589370.629 -21159425.461 13148721.315 10 0 60875 72000.00000 0 -5780764.786 -22606126.304 10363704.888 10 0 60875 72900.00000 0 -6050641.760 -23681260.362 7377918.294 10 0 60875 73800.00000 0 -6344565.559 -24361825.121 4249193.517 10 0 60875 74700.00000 0 -6605578.767 -24638073.839 1038137.130 10 0 60875 75600.00000 0 -6776825.049 -24513824.466 -2193035.584 10 0 60875 76500.00000 0 -6804175.559 -24006220.770 -5381698.819 10 0 60875 77400.00000 0 -6638748.532 -23144955.446 -8466023.997 10 0 60875 78300.00000 0 -6239215.595 -21970987.372 -11386174.043 10 0 60875 79200.00000 0 -5573796.974 -20534806.198 -14085461.311 10 0 60875 80100.00000 0 -4621860.567 -18894316.321 -16511446.797 10 0 60875 81000.00000 0 -3375056.173 -17112428.269 -18616959.391 10 0 60875 81900.00000 0 -1837935.436 -15254457.732 -20361015.390 10 0 60875 82800.00000 0 -28029.414 -13385440.650 -21709620.229 10 0 60875 83700.00000 0 2024621.742 -11567476.368 -22636436.697 10 0 60875 84600.00000 0 4278469.655 -9857209.796 -23123306.259 10 0 60875 85500.00000 0 6681949.496 -8303557.897 -23160612.851 10 0 60876 0.00000 0 9175402.181 -6945775.836 -22747481.486 10 0 60876 900.00000 0 11693349.804 -5811943.238 -21891806.687 10 0 60876 1800.00000 0 14167027.243 -4917935.999 -20610109.968 10 0 60876 2700.00000 0 16527069.512 -4266924.529 -18927227.466 10 0 60876 3600.00000 0 18706239.678 -3849421.459 -16875833.376 10 0 60876 4500.00000 0 20642084.473 -3643875.952 -14495807.619 10 0 60876 5400.00000 0 22279405.970 -3617789.368 -11833459.631 10 0 60876 6300.00000 0 23572445.118 -3729304.591 -8940623.214 10 0 60876 7200.00000 0 24486684.851 -3929200.909 -5873640.355 10 0 60876 8100.00000 0 25000196.633 -4163208.843 -2692254.427 10 0 60876 9000.00000 0 25104473.465 -4374545.430 541564.742 10 0 60876 9900.00000 0 24804714.453 -4506560.934 3764839.786 10 0 60876 10800.00000 0 24119549.487 -4505383.224 6914823.612 10 0 60876 11700.00000 0 23080216.456 -4322446.208 9930230.716 10 0 60876 12600.00000 0 21729226.839 -3916793.906 12752436.830 10 0 60876 13500.00000 0 20118577.242 -3257061.653 15326622.702 10 0 60876 14400.00000 0 18307583.435 -2323049.982 17602839.310 10 0 60876 15300.00000 0 16360429.158 -1106824.417 19536973.765 10 0 60876 16200.00000 0 14343533.428 386705.268 21091597.583 10 0 60876 17100.00000 0 12322847.101 2139750.619 22236681.726 10 0 60876 18000.00000 0 10361191.772 4122156.200 22950165.649 10 0 60876 18900.00000 0 8515751.578 6292435.924 23218370.667 10 0 60876 19800.00000 0 6835821.450 8599290.810 23036250.993 10 0 60876 20700.00000 0 5360904.232 10983545.112 22407478.833 10 0 60876 21600.00000 0 4119234.106 13380420.715 21344362.942 10 0 60876 22500.00000 0 3126785.915 15722055.973 19867602.937 10 0 60876 23400.00000 0 2386809.712 17940165.179 18005884.501 10 0 60876 24300.00000 0 1889908.140 19968729.262 15795323.359 10 0 60876 25200.00000 0 1614651.858 21746606.982 13278768.467 10 0 60876 26100.00000 0 1528706.049 23219959.122 10504977.372 10 0 60876 27000.00000 0 1590419.982 24344385.745 7527679.000 10 0 60876 27900.00000 0 1750812.431 25086688.277 4404541.200 10 0 60876 28800.00000 0 1955869.359 25426183.411 1196062.258 10 0 60876 29700.00000 0 2149057.147 25355514.264 -2035592.880 10 0 60876 30600.00000 0 2273945.663 24880924.835 -5227789.776 10 0 60876 31500.00000 0 2276830.615 24021985.992 -8318632.356 10 0 60876 32400.00000 0 2109244.531 22810783.897 -11248158.391 10 0 60876 33300.00000 0 1730250.100 21290604.140 -13959499.741 10 0 60876 34200.00000 0 1108418.505 19514165.807 -16399984.966 10 0 60876 35100.00000 0 223408.328 17541478.523 -18522162.973 10 0 60876 36000.00000 0 -932922.922 15437411.233 -20284727.867 10 0 60876 36900.00000 0 -2355923.146 13269073.644 -21653326.851 10 0 60876 37800.00000 0 -4028093.001 11103119.134 -22601235.309 10 0 60876 38700.00000 0 -5919580.649 9003081.330 -23109885.588 10 0 60876 39600.00000 0 -7989205.459 7026855.347 -23169238.686 10 0 60876 40500.00000 0 -10185969.955 5224428.778 -22777990.976 10 0 60876 41400.00000 0 -12450998.637 3635957.214 -21943611.163 10 0 60876 42300.00000 0 -14719824.131 2290264.908 -20682205.844 10 0 60876 43200.00000 0 -16924926.108 1203833.356 -19018215.394 10 0 60876 44100.00000 0 -18998417.371 380320.213 -16983945.203 10 0 60876 45000.00000 0 -20874764.673 -189371.444 -14618940.653 10 0 60876 45900.00000 0 -22493430.059 -526476.795 -11969217.571 10 0 60876 46800.00000 0 -23801321.288 -663232.564 -9086362.962 10 0 60876 47700.00000 0 -24754947.694 -641268.786 -6026523.789 10 0 60876 48600.00000 0 -25322189.949 -509598.370 -2849304.043 10 0 60876 49500.00000 0 -25483608.752 -322291.025 383407.430 10 0 60876 50400.00000 0 -25233237.136 -135931.669 3608654.256 10 0 60876 51300.00000 0 -24578822.957 -6972.820 6763649.979 10 0 60876 52200.00000 0 -23541511.809 10905.239 9787010.253 10 0 60876 53100.00000 0 -22154984.562 -130686.816 12619954.513 10 0 60876 54000.00000 0 -20464086.858 -472557.518 15207452.943 10 0 60876 54900.00000 0 -18523009.376 -1045971.348 17499295.936 10 0 60876 55800.00000 0 -16393096.413 -1871095.414 19451065.197 10 0 60876 56700.00000 0 -14140375.592 -2955921.721 21024988.093 10 0 60876 57600.00000 0 -11832912.630 -4295710.298 22190659.491 10 0 60876 58500.00000 0 -9538101.871 -5872976.363 22925618.196 10 0 60876 59400.00000 0 -7320005.217 -7658021.850 23215768.149 10 0 60876 60300.00000 0 -5236849.420 -9609988.928 23055637.599 10 0 60876 61200.00000 0 -3338784.608 -11678391.572 22448472.439 10 0 60876 62100.00000 0 -1665995.568 -13805061.560 21406162.982 10 0 60876 63000.00000 0 -247242.362 -15926428.392 19949006.303 10 0 60876 63900.00000 0 901110.953 -17976038.877 18105309.140 10 0 60876 64800.00000 0 1775541.104 -19887212.446 15910839.076 10 0 60876 65700.00000 0 2385267.132 -21595722.626 13408134.343 10 0 60876 66600.00000 0 2751614.275 -23042393.979 10645685.083 10 0 60876 67500.00000 0 2906868.049 -24175507.154 7677001.211 10 0 60876 68400.00000 0 2892667.326 -24952912.474 4559584.121 10 0 60876 69300.00000 0 2758004.343 -25343764.268 1353821.383 10 0 60876 70200.00000 0 2556915.925 -25329803.665 -1878174.902 10 0 60876 71100.00000 0 2345963.130 -24906136.102 -5073764.247 10 0 60876 72000.00000 0 2181605.431 -24081470.562 -8170985.708 10 0 60876 72900.00000 0 2117580.190 -22877809.878 -11109754.565 10 0 60876 73800.00000 0 2202398.064 -21329604.108 -13833024.858 10 0 60876 74700.00000 0 2477060.396 -19482401.415 -16287895.320 10 0 60876 75600.00000 0 2973095.556 -17391051.715 -18426637.375 10 0 60876 76500.00000 0 3710998.033 -15117537.071 -20207625.211 10 0 60876 77400.00000 0 4699137.426 -12728518.437 -21596149.769 10 0 60876 78300.00000 0 5933184.973 -10292700.267 -22565100.612 10 0 60876 79200.00000 0 7396083.679 -7878122.165 -23095502.113 10 0 60876 80100.00000 0 9058565.405 -5549490.087 -23176893.001 10 0 60876 81000.00000 0 10880195.325 -3365657.998 -22807541.288 10 0 60876 81900.00000 0 12810901.907 -1377364.899 -21994489.555 10 0 60876 82800.00000 0 14792929.971 374678.342 -20753428.870 10 0 60876 83700.00000 0 16763136.230 1861272.448 -19108402.834 10 0 60876 84600.00000 0 18655531.864 3065721.432 -17091346.628 10 0 60876 85500.00000 0 20403965.812 3984291.137 -14741469.324 10 0 60877 0.00000 0 21944835.855 4626115.698 -12104491.265 10 0 60877 900.00000 0 23219713.816 5012556.787 -9231749.691 10 0 60877 1800.00000 0 24177771.690 5176042.755 -6179193.899 10 0 60877 2700.00000 0 24777908.350 5158439.094 -3006285.372 10 0 60877 3600.00000 0 24990484.309 5009019.666 225171.317 10 0 60877 4500.00000 0 24798591.658 4782126.699 3452244.163 10 0 60877 5400.00000 0 24198805.189 4534620.330 6612110.713 10 0 60877 6300.00000 0 23201383.053 4323227.494 9643290.979 10 0 60877 7200.00000 0 21829908.824 4201904.072 12486851.089 10 0 60877 8100.00000 0 20120390.818 4219323.288 15087553.356 10 0 60877 9000.00000 0 18119857.371 4416597.550 17394929.944 10 0 60877 9900.00000 0 15884508.058 4825330.547 19364259.155 10 0 60877 10800.00000 0 13477499.159 5466081.985 20957425.832 10 0 60877 11700.00000 0 10966456.592 6347309.499 22143649.970 10 0 60877 12600.00000 0 8420820.451 7464831.916 22900070.526 10 0 60877 13500.00000 0 5909131.588 8801835.969 23212174.428 10 0 60877 14400.00000 0 3496372.479 10329425.845 23074063.834 10 0 60877 15300.00000 0 1241471.810 12007692.317 22488557.702 10 0 60877 16200.00000 0 -804925.114 13787256.805 21467126.782 10 0 60877 17100.00000 0 -2602329.370 15611226.153 20029664.006 10 0 60877 18000.00000 0 -4121848.989 17417477.071 18204095.130 10 0 60877 18900.00000 0 -5347139.253 19141175.663 16025837.216 10 0 60877 19800.00000 0 -6274825.081 20717427.805 13537115.123 10 0 60877 20700.00000 0 -6914379.608 22083950.665 10786148.761 10 0 60877 21600.00000 0 -7287465.443 23183654.661 7826226.109 10 0 60877 22500.00000 0 -7426767.251 23967028.688 4714679.151 10 0 60877 23400.00000 0 -7374365.295 24394229.326 1511781.803 10 0 60877 24300.00000 0 -7179718.656 24436786.805 -1720409.557 10 0 60877 25200.00000 0 -6897343.086 24078856.163 -4919251.162 10 0 60877 26100.00000 0 -6584281.271 23317960.708 -8022719.805 10 0 60877 27000.00000 0 -6297472.041 22165195.880 -10970610.676 10 0 60877 27900.00000 0 -6091129.458 20644883.916 -13705702.136 10 0 60877 28800.00000 0 -6014242.458 18793692.508 -16174864.960 10 0 60877 29700.00000 0 -6108300.888 16659252.994 -18330094.640 10 0 60877 30600.00000 0 -6405344.455 14298334.356 -20129446.717 10 0 60877 31500.00000 0 -6926417.821 11774647.986 -21537856.835 10 0 60877 32400.00000 0 -7680498.191 9156373.556 -22527829.424 10 0 60877 33300.00000 0 -8663942.141 6513508.091 -23079981.276 10 0 60877 34200.00000 0 -9860476.707 3915147.922 -23183428.944 10 0 60877 35100.00000 0 -11241737.003 1426816.178 -22836011.822 10 0 60877 36000.00000 0 -12768329.635 -892053.229 -22044345.757 10 0 60877 36900.00000 0 -14391378.870 -2990370.342 -20823705.282 10 0 60877 37800.00000 0 -16054492.039 -4827288.678 -19197735.834 10 0 60877 38700.00000 0 -17696062.503 -6373670.173 -17198000.663 10 0 60877 39600.00000 0 -19251813.923 -7613054.376 -14863370.524 10 0 60877 40500.00000 0 -20657478.742 -8542091.492 -12239267.523 10 0 60877 41400.00000 0 -21851497.914 -9170421.710 -9376777.702 10 0 60877 42300.00000 0 -22777627.224 -9520006.558 -6331649.818 10 0 60877 43200.00000 0 -23387339.296 -9623941.673 -3163200.361 10 0 60877 44100.00000 0 -23641919.100 -9524802.561 66852.873 10 0 60877 45000.00000 0 -23514163.534 -9272594.925 3295604.751 10 0 60877 45900.00000 0 -22989612.726 -8922398.129 6460199.310 10 0 60877 46800.00000 0 -22067260.706 -8531803.374 9499063.421 10 0 60877 47700.00000 0 -20759715.485 -8158256.758 12353112.365 10 0 60877 48600.00000 0 -19092802.137 -7856421.151 14966902.971 10 0 60877 49500.00000 0 -17104626.157 -7675669.533 17289711.411 10 0 60877 50400.00000 0 -14844137.143 -7657816.389 19276514.597 10 0 60877 51300.00000 0 -12369253.722 -7835183.166 20888856.552 10 0 60877 52200.00000 0 -9744628.663 -8229079.108 22095583.738 10 0 60877 53100.00000 0 -7039147.799 -8848761.006 22873436.194 10 0 60877 54000.00000 0 -4323266.821 -9690914.926 23207484.330 10 0 60877 54900.00000 0 -1666296.195 -10739681.011 23091404.292 10 0 60877 55800.00000 0 866253.927 -11967219.758 22527587.781 10 0 60877 56700.00000 0 3215160.004 -13334795.735 21527085.297 10 0 60877 57600.00000 0 5329701.093 -14794333.295 20109384.618 10 0 60877 58500.00000 0 7169514.433 -16290379.450 18302029.207 10 0 60877 59400.00000 0 8706015.557 -17762392.321 16140084.000 10 0 60877 60300.00000 0 9923325.830 -19147260.175 13665458.615 10 0 60877 61200.00000 0 10818670.540 -20381946.466 10926100.603 10 0 60877 62100.00000 0 11402232.522 -21406151.034 7975073.638 10 0 60877 63000.00000 0 11696468.634 -22164876.737 4869537.734 10 0 60877 63900.00000 0 11734918.594 -22610794.530 1669650.450 10 0 60877 64800.00000 0 11560556.712 -22706308.080 -1562590.348 10 0 60877 65700.00000 0 11223756.004 -22425231.270 -4764540.415 10 0 60877 66600.00000 0 10779950.395 -21754007.779 -7874117.065 10 0 60877 67500.00000 0 10287093.361 -20692420.799 -10830998.107 10 0 60877 68400.00000 0 9803019.974 -19253761.992 -13577788.827 10 0 60877 69300.00000 0 9382823.510 -17464451.242 -16061134.501 10 0 60877 70200.00000 0 9076357.310 -15363121.509 -18232756.953 10 0 60877 71100.00000 0 8925967.507 -12999205.422 -20050395.074 10 0 60877 72000.00000 0 8964552.775 -10431080.957 -21478630.890 10 0 60877 72900.00000 0 9214033.664 -7723852.040 -22489584.982 10 0 60877 73800.00000 0 9684297.154 -4946855.168 -23063467.408 10 0 60877 74700.00000 0 10372662.198 -2170994.811 -23188972.938 10 0 60877 75600.00000 0 11263890.278 533982.339 -22863512.286 10 0 60877 76500.00000 0 12330742.103 3102161.402 -22093274.068 10 0 60877 77400.00000 0 13535058.552 5473970.537 -20893115.391 10 0 60877 78300.00000 0 14829321.652 7598424.862 -19286282.275 10 0 60877 79200.00000 0 16158630.929 9435009.460 -17303964.438 10 0 60877 80100.00000 0 17463012.432 10955122.759 -14984692.388 10 0 60877 81000.00000 0 18679963.327 12143020.017 -12373588.034 10 0 60877 81900.00000 0 19747124.449 12996217.652 -9521483.234 10 0 60877 82800.00000 0 20604967.310 13525342.003 -6483923.620 10 0 60877 83700.00000 0 21199381.219 13753429.842 -3320077.719 10 0 60877 84600.00000 0 21484049.976 13714711.356 -91573.449 10 0 60877 85500.00000 0 21422516.674 13452928.615 3138714.074 10 0 60878 0.00000 0 20989848.616 13019262.385 6307898.194 10 0 60878 900.00000 0 20173830.872 12469956.561 9354316.159 10 0 60878 1800.00000 0 18975638.474 11863743.113 12218734.850 10 0 60878 2700.00000 0 17409958.087 11259177.267 14845508.087 10 0 60878 3600.00000 0 15504554.790 10711997.369 17183658.245 10 0 60878 4500.00000 0 13299302.445 10272621.541 19187862.735 10 0 60878 5400.00000 0 10844718.860 9983887.119 20819326.339 10 0 60878 6300.00000 0 8200067.459 9879128.003 22046523.235 10 0 60878 7200.00000 0 5431105.008 9980670.321 22845795.428 10 0 60878 8100.00000 0 2607569.191 10298808.820 23201797.296 10 0 60878 9000.00000 0 -199489.891 10831306.048 23107778.997 10 0 60878 9900.00000 0 -2920424.230 11563434.393 22565704.523 10 0 60878 10800.00000 0 -5489636.996 12468558.446 21586203.149 10 0 60878 11700.00000 0 -7848057.839 13509232.799 20188356.002 10 0 60878 12600.00000 0 -9945343.452 14638769.058 18399322.273 10 0 60878 13500.00000 0 -11741713.950 15803206.612 16253812.379 10 0 60878 14400.00000 0 -13209350.647 16943604.984 13793417.974 10 0 60878 15300.00000 0 -14333298.851 17998562.317 11065811.313 10 0 60878 16200.00000 0 -15111839.598 18906855.121 8123828.728 10 0 60878 17100.00000 0 -15556316.143 19610089.236 5024455.200 10 0 60878 18000.00000 0 -15690423.382 20055251.314 1827728.922 10 0 60878 18900.00000 0 -15548990.655 20197053.969 -1404413.664 10 0 60878 19800.00000 0 -15176309.347 19999976.166 -4609330.622 10 0 60878 20700.00000 0 -14624075.638 19439912.722 -7724882.417 10 0 60878 21600.00000 0 -13949034.870 18505362.959 -10690631.917 10 0 60878 22500.00000 0 -13210426.498 17198107.487 -13449013.549 10 0 60878 23400.00000 0 -12467337.047 15533343.304 -15946449.028 10 0 60878 24300.00000 0 -11776072.446 13539269.863 -18134388.153 10 0 60878 25200.00000 0 -11187660.455 11256141.578 -19970254.485 10 0 60878 26100.00000 0 -10745588.594 8734824.437 -21418277.417 10 0 60878 27000.00000 0 -10483873.272 6034915.142 -22450194.331 10 0 60878 27900.00000 0 -10425542.119 3222499.448 -23045808.870 10 0 60878 28800.00000 0 -10581594.317 367641.634 -23193393.988 10 0 60878 29700.00000 0 -10950483.788 -2458291.544 -22889931.334 10 0 60878 30600.00000 0 -11518148.229 -5185361.911 -22141181.543 10 0 60878 31500.00000 0 -12258583.942 -7747732.741 -20961583.173 10 0 60878 32400.00000 0 -13134943.408 -10086172.352 -19373981.336 10 0 60878 33300.00000 0 -14101110.208 -12150284.093 -17409190.415 10 0 60878 34200.00000 0 -15103685.445 -13900369.503 -15105398.586 10 0 60878 35100.00000 0 -16084302.063 -15308846.715 -12507425.272 10 0 60878 36000.00000 0 -16982169.104 -16361164.792 -9665845.731 10 0 60878 36900.00000 0 -17736737.766 -17056175.878 -6636000.051 10 0 60878 37800.00000 0 -18290375.522 -17405950.149 -3476906.334 10 0 60878 38700.00000 0 -18590934.023 -17435042.384 -250100.176 10 0 60878 39600.00000 0 -18594101.014 -17179242.442 2981575.720 10 0 60878 40500.00000 0 -18265435.539 -16683864.024 6155206.941 10 0 60878 41400.00000 0 -17581999.471 -16001645.781 9209042.331 10 0 60878 42300.00000 0 -16533515.772 -15190355.305 12083703.272 10 0 60878 43200.00000 0 -15123004.211 -14310198.904 14723342.831 10 0 60878 44100.00000 0 -13366867.743 -13421147.955 17076731.712 10 0 60878 45000.00000 0 -11294426.083 -12580295.669 19098249.775 10 0 60878 45900.00000 0 -8946916.379 -11839356.167 20748764.253 10 0 60878 46800.00000 0 -6376003.131 -11242411.160 21996378.421 10 0 60878 47700.00000 0 -3641859.810 -10823998.498 22817037.283 10 0 60878 48600.00000 0 -810902.142 -10607622.008 23194979.833 10 0 60878 49500.00000 0 2046732.983 -10604744.005 23123030.531 10 0 60878 50400.00000 0 4859858.874 -10814301.487 22602725.557 10 0 60878 51300.00000 0 7558950.864 -11222765.108 21644272.521 10 0 60878 52200.00000 0 10078787.457 -11804737.461 20266345.124 10 0 60878 53100.00000 0 12360912.802 -12524064.934 18495717.189 10 0 60878 54000.00000 0 14355820.070 -13335416.138 16366743.195 10 0 60878 54900.00000 0 16024766.806 -14186260.798 13920695.100 10 0 60878 55800.00000 0 17341148.448 -15019166.291 11204967.791 10 0 60878 56700.00000 0 18291374.334 -15774315.970 8272167.872 10 0 60878 57600.00000 0 18875210.949 -16392144.029 5179102.612 10 0 60878 58500.00000 0 19105579.027 -16815976.718 1985687.916 10 0 60878 59400.00000 0 19007813.693 -16994569.204 -1246204.277 10 0 60878 60300.00000 0 18618419.024 -16884431.513 -4453937.487 10 0 60878 61200.00000 0 17983369.410 -16451845.479 -7575318.440 10 0 60878 62100.00000 0 17156028.965 -15674487.285 -10549798.068 10 0 60878 63000.00000 0 16194776.233 -14542586.401 -13319642.755 10 0 60878 63900.00000 0 15160433.781 -13059570.854 -15831053.253 10 0 60878 64800.00000 0 14113610.552 -11242170.071 -18035209.666 10 0 60878 65700.00000 0 13112068.553 -9119969.027 -19889222.246 10 0 60878 66600.00000 0 12208224.623 -6734430.276 -21356969.435 10 0 60878 67500.00000 0 11446892.458 -4137422.646 -22409806.702 10 0 60878 68400.00000 0 10863360.190 -1389315.936 -23027132.131 10 0 60878 69300.00000 0 10481884.869 1443280.708 -23196797.265 10 0 60878 70200.00000 0 10314667.884 4290044.058 -22915354.635 10 0 60878 71100.00000 0 10361355.230 7079621.758 -22188136.381 10 0 60878 72000.00000 0 10609084.514 9742365.893 -21029161.572 10 0 60878 72900.00000 0 11033077.577 12213001.761 -19460873.086 10 0 60878 73800.00000 0 11597754.368 14433120.673 -17513708.246 10 0 60878 74700.00000 0 12258321.590 16353392.661 -15225510.849 10 0 60878 75600.00000 0 12962769.129 17935406.387 -12640795.469 10 0 60878 76500.00000 0 13654189.627 19153059.065 -9809878.117 10 0 60878 77400.00000 0 14273322.558 19993438.157 -6787890.402 10 0 60878 78300.00000 0 14761214.091 20457158.033 -3633696.907 10 0 60878 79200.00000 0 15061878.906 20558138.070 -408737.706 10 0 60878 80100.00000 0 15124849.977 20322832.652 2824180.163 10 0 60878 81000.00000 0 14907507.052 19788946.894 6002117.414 10 0 60878 81900.00000 0 14377084.126 19003693.905 9063238.045 10 0 60878 82800.00000 0 13512270.019 18021668.884 11948020.410 10 0 60878 83700.00000 0 12304333.877 16902431.504 14600419.303 10 0 60878 84600.00000 0 10757727.768 15707900.069 16968955.944 10 0 60878 85500.00000 0 8890140.998 14499668.447 19007714.506 99